WYE088 KPHX-KSAN

Flight info

Callsign WYE088
Flight time 0h 56m
Altitude 32000
Route FYRBD1 MOHAK J2 HOGGZ LUCKI1
Aircraft A320/M-SDE3FGHIRWY/LB1

Departure

Time 2026-04-26 03:36
Airport Phoenix Sky Harbor International Airport (KPHX)

Arrival

Time 2026-04-26 04:33
Airport San Diego International Airport (KSAN)
Time Latitude Longitude Altitude Speed Heading
2026-04-26 03:21 33.43734 -112.00933 1134 ft 0 kts 101°
2026-04-26 03:27 33.43735 -112.00938 1130 ft 2 kts 101°
2026-04-26 03:27 33.43738 -112.00957 1134 ft 2 kts 99°
2026-04-26 03:27 33.43740 -112.00977 1133 ft 2 kts 96°
2026-04-26 03:28 33.43742 -112.00996 1132 ft 2 kts 89°
2026-04-26 03:28 33.43740 -112.01016 1133 ft 2 kts 47°
2026-04-26 03:28 33.43730 -112.01023 1135 ft 1 kts
2026-04-26 03:30 33.43754 -112.01022 1134 ft 8 kts
2026-04-26 03:30 33.43801 -112.01021 1130 ft 6 kts
2026-04-26 03:30 33.43846 -112.01020 1130 ft 9 kts
2026-04-26 03:30 33.43901 -112.00959 1131 ft 15 kts 84°
2026-04-26 03:31 33.43902 -112.00804 1130 ft 21 kts 90°
2026-04-26 03:31 33.43900 -112.00610 1131 ft 24 kts 90°
2026-04-26 03:31 33.43902 -112.00409 1131 ft 25 kts 85°
2026-04-26 03:31 33.43904 -112.00205 1131 ft 24 kts 90°
2026-04-26 03:32 33.43905 -112.00003 1131 ft 24 kts 89°
2026-04-26 03:32 33.43905 -111.99804 1131 ft 23 kts 90°
2026-04-26 03:32 33.43903 -111.99613 1131 ft 22 kts 90°
2026-04-26 03:32 33.43903 -111.99433 1132 ft 21 kts 89°
2026-04-26 03:33 33.43903 -111.99272 1132 ft 18 kts 91°
2026-04-26 03:33 33.43828 -111.99232 1134 ft 12 kts 176°
2026-04-26 03:33 33.43742 -111.99229 1133 ft 14 kts 180°
2026-04-26 03:33 33.43633 -111.99229 1132 ft 17 kts 180°
2026-04-26 03:34 33.43501 -111.99229 1131 ft 21 kts 180°
2026-04-26 03:34 33.43344 -111.99230 1136 ft 24 kts 180°
2026-04-26 03:34 33.43223 -111.99254 1133 ft 13 kts 224°
2026-04-26 03:34 33.43200 -111.99277 1133 ft 0 kts 221°
2026-04-26 03:35 33.43200 -111.99278 1133 ft 0 kts 221°
2026-04-26 03:35 33.43192 -111.99286 1138 ft 5 kts 221°
2026-04-26 03:35 33.43114 -111.99384 1138 ft 26 kts 248°
2026-04-26 03:35 33.43102 -111.99681 1135 ft 59 kts 270°
2026-04-26 03:36 33.43105 -112.00440 1133 ft 121 kts 270°
2026-04-26 03:36 33.43106 -112.01658 1139 ft 169 kts 270°
2026-04-26 03:36 33.43093 -112.03093 1651 ft 177 kts 268°
2026-04-26 03:36 33.43013 -112.04568 2239 ft 182 kts 266°
2026-04-26 03:37 33.42924 -112.06080 2919 ft 182 kts 266°
2026-04-26 03:37 33.42812 -112.07660 3253 ft 201 kts 258°
2026-04-26 03:37 33.42320 -112.09323 3466 ft 225 kts 249°
2026-04-26 03:37 33.41726 -112.11163 3802 ft 249 kts 249°
2026-04-26 03:38 33.41091 -112.13155 4440 ft 261 kts 248°
2026-04-26 03:38 33.40438 -112.15180 5356 ft 260 kts 243°
2026-04-26 03:38 33.39376 -112.16898 6238 ft 258 kts 219°
2026-04-26 03:38 33.37792 -112.17892 7060 ft 261 kts 195°
2026-04-26 03:39 33.35989 -112.17953 7857 ft 269 kts 171°
2026-04-26 03:39 33.34170 -112.17344 8687 ft 273 kts 167°
2026-04-26 03:39 33.32336 -112.16687 9501 ft 277 kts 167°
2026-04-26 03:39 33.30481 -112.16021 10248 ft 280 kts 167°
2026-04-26 03:40 33.28583 -112.15391 10820 ft 289 kts 175°
2026-04-26 03:40 33.26561 -112.15604 11024 ft 302 kts 204°
2026-04-26 03:40 33.24850 -112.17086 11418 ft 312 kts 232°
2026-04-26 03:40 33.23970 -112.19463 12099 ft 320 kts 256°
2026-04-26 03:41 33.23640 -112.22105 12877 ft 322 kts 256°
2026-04-26 03:41 33.23006 -112.24610 13598 ft 320 kts 244°
2026-04-26 03:41 33.21847 -112.26873 14276 ft 320 kts 235°
2026-04-26 03:41 33.20534 -112.29034 14957 ft 322 kts 233°
2026-04-26 03:42 33.19175 -112.31165 15628 ft 324 kts 233°
2026-04-26 03:42 33.17789 -112.33294 16282 ft 326 kts 232°
2026-04-26 03:42 33.16390 -112.35429 16913 ft 328 kts 233°
2026-04-26 03:42 33.14985 -112.37577 17567 ft 329 kts 233°
2026-04-26 03:43 33.13575 -112.39742 18187 ft 331 kts 233°
2026-04-26 03:43 33.12177 -112.41893 18726 ft 333 kts 233°
2026-04-26 03:43 33.10755 -112.44081 19300 ft 334 kts 233°
2026-04-26 03:43 33.09329 -112.46279 19887 ft 336 kts 233°
2026-04-26 03:44 33.07899 -112.48490 20404 ft 338 kts 234°
2026-04-26 03:44 33.06465 -112.50711 21011 ft 338 kts 234°
2026-04-26 03:44 33.05031 -112.52936 21617 ft 339 kts 234°
2026-04-26 03:44 33.03587 -112.55171 22229 ft 341 kts 234°
2026-04-26 03:45 33.02137 -112.57411 22796 ft 342 kts 234°
2026-04-26 03:45 33.00676 -112.59661 23343 ft 344 kts 234°
2026-04-26 03:45 32.99209 -112.61917 23804 ft 345 kts 234°
2026-04-26 03:45 32.97756 -112.64152 24232 ft 346 kts 234°
2026-04-26 03:46 32.96390 -112.66510 24661 ft 347 kts 242°
2026-04-26 03:46 32.95474 -112.69168 25068 ft 349 kts 253°
2026-04-26 03:46 32.95020 -112.72017 25465 ft 352 kts 258°
2026-04-26 03:47 32.94256 -112.77795 26237 ft 355 kts 258°
2026-04-26 03:47 32.93866 -112.80701 26633 ft 356 kts 257°
2026-04-26 03:47 32.93472 -112.83608 27016 ft 357 kts 257°
2026-04-26 03:47 32.93075 -112.86529 27386 ft 358 kts 257°
2026-04-26 03:48 32.92679 -112.89457 27738 ft 359 kts 257°
2026-04-26 03:48 32.92278 -112.92399 28094 ft 361 kts 257°
2026-04-26 03:48 32.91881 -112.95309 28426 ft 362 kts 257°
2026-04-26 03:48 32.91476 -112.98270 28752 ft 363 kts 257°
2026-04-26 03:49 32.91069 -113.01245 29075 ft 365 kts 257°
2026-04-26 03:49 32.90659 -113.04232 29389 ft 366 kts 257°
2026-04-26 03:49 32.90249 -113.07225 29696 ft 368 kts 257°
2026-04-26 03:49 32.89838 -113.10234 29971 ft 369 kts 257°
2026-04-26 03:50 32.89426 -113.13249 30243 ft 369 kts 257°
2026-04-26 03:50 32.89012 -113.16269 30506 ft 370 kts 257°
2026-04-26 03:50 32.88596 -113.19290 30751 ft 371 kts 257°
2026-04-26 03:50 32.88179 -113.22314 31025 ft 370 kts 257°
2026-04-26 03:51 32.87764 -113.25325 31368 ft 368 kts 257°
2026-04-26 03:51 32.87350 -113.28325 31690 ft 367 kts 256°
2026-04-26 03:51 32.86940 -113.31297 31760 ft 359 kts 256°
2026-04-26 03:51 32.86542 -113.34175 31769 ft 348 kts 256°
2026-04-26 03:52 32.86147 -113.36997 31770 ft 344 kts 256°
2026-04-26 03:52 32.85363 -113.42557 31769 ft 343 kts 256°
2026-04-26 03:53 32.84576 -113.48143 31766 ft 342 kts 256°
2026-04-26 03:53 32.83790 -113.53729 31772 ft 342 kts 256°
2026-04-26 03:54 32.83002 -113.59308 31768 ft 342 kts 256°
2026-04-26 03:54 32.82216 -113.64845 31775 ft 342 kts 256°
2026-04-26 03:55 32.81422 -113.70417 31777 ft 342 kts 256°
2026-04-26 03:55 32.80635 -113.75988 31789 ft 342 kts 256°
2026-04-26 03:56 32.79840 -113.81555 31777 ft 342 kts 256°
2026-04-26 03:56 32.79045 -113.87092 31774 ft 342 kts 256°
2026-04-26 03:57 32.78234 -113.92665 31782 ft 342 kts 256°
2026-04-26 03:57 32.77562 -113.98274 31782 ft 347 kts 263°
2026-04-26 03:58 32.77515 -114.04013 31791 ft 347 kts 263°
2026-04-26 03:58 32.77518 -114.09760 31783 ft 349 kts 265°
2026-04-26 03:59 32.77754 -114.15497 31795 ft 351 kts 266°
2026-04-26 03:59 32.78046 -114.21287 31794 ft 351 kts 266°
2026-04-26 04:00 32.78307 -114.27079 31804 ft 351 kts 266°
2026-04-26 04:00 32.78528 -114.32865 31843 ft 350 kts 265°
2026-04-26 04:01 32.78864 -114.38647 31829 ft 356 kts 273°
2026-04-26 04:01 32.80316 -114.44329 31825 ft 363 kts 278°
2026-04-26 04:02 32.81894 -114.50024 31818 ft 363 kts 278°
2026-04-26 04:02 32.83465 -114.55726 31811 ft 363 kts 278°
2026-04-26 04:03 32.85028 -114.61427 31806 ft 362 kts 278°
2026-04-26 04:03 32.86193 -114.65702 31807 ft 362 kts 278°
2026-04-26 04:04 32.87633 -114.71374 31802 ft 355 kts 272°
2026-04-26 04:04 32.87832 -114.77114 31800 ft 345 kts 262°
2026-04-26 04:05 32.87704 -114.82826 31796 ft 346 kts 262°
2026-04-26 04:05 32.87582 -114.88541 31795 ft 346 kts 262°
2026-04-26 04:06 32.87462 -114.94218 31796 ft 346 kts 262°
2026-04-26 04:06 32.87332 -114.99931 31800 ft 345 kts 262°
2026-04-26 04:07 32.87192 -115.05627 31735 ft 342 kts 262°
2026-04-26 04:07 32.87129 -115.08431 31484 ft 337 kts 262°
2026-04-26 04:07 32.87066 -115.11200 31237 ft 334 kts 262°
2026-04-26 04:07 32.87000 -115.13953 30991 ft 332 kts 262°
2026-04-26 04:08 32.86933 -115.16687 30751 ft 330 kts 262°
2026-04-26 04:08 32.86863 -115.19415 30516 ft 327 kts 262°
2026-04-26 04:08 32.86798 -115.22050 30200 ft 321 kts 262°
2026-04-26 04:08 32.86733 -115.24682 29807 ft 316 kts 262°
2026-04-26 04:09 32.86668 -115.27269 29397 ft 310 kts 261°
2026-04-26 04:09 32.86604 -115.29813 29024 ft 305 kts 261°
2026-04-26 04:09 32.86539 -115.32308 28647 ft 300 kts 261°
2026-04-26 04:09 32.86403 -115.34760 28227 ft 294 kts 255°
2026-04-26 04:10 32.86066 -115.37142 27786 ft 290 kts 255°
2026-04-26 04:10 32.85737 -115.39495 27388 ft 287 kts 255°
2026-04-26 04:10 32.85413 -115.41817 26993 ft 283 kts 255°
2026-04-26 04:10 32.85092 -115.44110 26609 ft 279 kts 255°
2026-04-26 04:11 32.84775 -115.46368 26234 ft 275 kts 255°
2026-04-26 04:11 32.84462 -115.48599 25864 ft 273 kts 255°
2026-04-26 04:11 32.84121 -115.50856 25524 ft 287 kts 253°
2026-04-26 04:11 32.83736 -115.53186 25173 ft 295 kts 253°
2026-04-26 04:12 32.83336 -115.55588 24810 ft 297 kts 253°
2026-04-26 04:12 32.82937 -115.57994 24442 ft 296 kts 253°
2026-04-26 04:12 32.82540 -115.60396 24083 ft 296 kts 253°
2026-04-26 04:12 32.82146 -115.62792 23749 ft 295 kts 253°
2026-04-26 04:13 32.81755 -115.65182 23392 ft 294 kts 254°
2026-04-26 04:13 32.81366 -115.67569 22976 ft 294 kts 254°
2026-04-26 04:13 32.80976 -115.69953 22612 ft 294 kts 254°
2026-04-26 04:13 32.80583 -115.72333 22251 ft 293 kts 254°
2026-04-26 04:14 32.80188 -115.74709 21890 ft 293 kts 254°
2026-04-26 04:14 32.79799 -115.77046 21537 ft 292 kts 254°
2026-04-26 04:14 32.79408 -115.79413 21175 ft 292 kts 254°
2026-04-26 04:14 32.79017 -115.81774 20813 ft 291 kts 254°
2026-04-26 04:15 32.78626 -115.84132 20463 ft 291 kts 254°
2026-04-26 04:15 32.78385 -115.86533 20095 ft 293 kts 259°
2026-04-26 04:15 32.78212 -115.88945 19741 ft 293 kts 259°
2026-04-26 04:15 32.78035 -115.91354 19355 ft 292 kts 259°
2026-04-26 04:16 32.77855 -115.93758 18988 ft 292 kts 259°
2026-04-26 04:16 32.77675 -115.96160 18597 ft 292 kts 260°
2026-04-26 04:16 32.77496 -115.98534 18267 ft 293 kts 260°
2026-04-26 04:16 32.77316 -116.00938 17881 ft 292 kts 260°
2026-04-26 04:17 32.77137 -116.03337 17526 ft 291 kts 260°
2026-04-26 04:17 32.76957 -116.05729 17161 ft 290 kts 260°
2026-04-26 04:17 32.76773 -116.08118 16814 ft 290 kts 260°
2026-04-26 04:17 32.76590 -116.10500 16454 ft 289 kts 260°
2026-04-26 04:18 32.76409 -116.12878 16097 ft 289 kts 260°
2026-04-26 04:18 32.76229 -116.15245 15776 ft 287 kts 260°
2026-04-26 04:18 32.76048 -116.17611 15422 ft 287 kts 260°
2026-04-26 04:18 32.75867 -116.19973 15070 ft 287 kts 260°
2026-04-26 04:19 32.75686 -116.22327 14718 ft 286 kts 260°
2026-04-26 04:19 32.75505 -116.24650 14372 ft 286 kts 260°
2026-04-26 04:19 32.75323 -116.26999 14061 ft 285 kts 261°
2026-04-26 04:19 32.75143 -116.29337 13698 ft 283 kts 261°
2026-04-26 04:20 32.74965 -116.31655 13325 ft 281 kts 261°
2026-04-26 04:20 32.74789 -116.33957 12963 ft 278 kts 261°
2026-04-26 04:20 32.74615 -116.36234 12622 ft 276 kts 261°
2026-04-26 04:20 32.74441 -116.38490 12312 ft 273 kts 261°
2026-04-26 04:21 32.74267 -116.40725 11981 ft 271 kts 261°
2026-04-26 04:21 32.74151 -116.42193 11750 ft 269 kts 261°
2026-04-26 04:21 32.73922 -116.45112 11325 ft 267 kts 261°
2026-04-26 04:21 32.73752 -116.47301 11014 ft 265 kts 261°
2026-04-26 04:22 32.73587 -116.49438 10836 ft 256 kts 260°
2026-04-26 04:22 32.73415 -116.51521 10609 ft 251 kts 259°
2026-04-26 04:22 32.73219 -116.53582 10369 ft 250 kts 259°
2026-04-26 04:22 32.73015 -116.55625 10060 ft 248 kts 258°
2026-04-26 04:23 32.72809 -116.57661 9737 ft 250 kts 260°
2026-04-26 04:23 32.72666 -116.59021 9514 ft 251 kts 259°
2026-04-26 04:23 32.72443 -116.61076 9204 ft 249 kts 261°
2026-04-26 04:23 32.72249 -116.63075 9090 ft 239 kts 261°
2026-04-26 04:24 32.72014 -116.65639 8921 ft 239 kts 261°
2026-04-26 04:24 32.71842 -116.67617 8729 ft 242 kts 262°
2026-04-26 04:24 32.71736 -116.68958 8496 ft 239 kts 262°
2026-04-26 04:24 32.71586 -116.70929 8139 ft 241 kts 263°
2026-04-26 04:25 32.71439 -116.72908 7760 ft 241 kts 264°
2026-04-26 04:25 32.71289 -116.74870 7380 ft 242 kts 264°
2026-04-26 04:25 32.71135 -116.76859 6988 ft 242 kts 264°
2026-04-26 04:25 32.70979 -116.78853 6585 ft 243 kts 265°
2026-04-26 04:26 32.70822 -116.80859 6164 ft 244 kts 265°
2026-04-26 04:26 32.70442 -116.82817 5793 ft 243 kts 250°
2026-04-26 04:26 32.69856 -116.84669 5522 ft 237 kts 250°
2026-04-26 04:26 32.69288 -116.86485 5269 ft 232 kts 250°
2026-04-26 04:27 32.68737 -116.88254 4998 ft 226 kts 251°
2026-04-26 04:27 32.68212 -116.89992 4744 ft 222 kts 251°
2026-04-26 04:27 32.67707 -116.91704 4482 ft 218 kts 251°
2026-04-26 04:27 32.67360 -116.93414 4233 ft 216 kts 267°
2026-04-26 04:28 32.67545 -116.95167 3985 ft 214 kts 286°
2026-04-26 04:28 32.67970 -116.96845 3735 ft 210 kts 285°
2026-04-26 04:28 32.68381 -116.98503 3491 ft 208 kts 285°
2026-04-26 04:28 32.68784 -117.00145 3253 ft 206 kts 284°
2026-04-26 04:29 32.69178 -117.01762 3002 ft 201 kts 284°
2026-04-26 04:29 32.69552 -117.03295 2812 ft 185 kts 284°
2026-04-26 04:29 32.69897 -117.04707 2567 ft 172 kts 284°
2026-04-26 04:29 32.70214 -117.05998 2366 ft 153 kts 284°
2026-04-26 04:30 32.70498 -117.07156 2155 ft 141 kts 284°
2026-04-26 04:30 32.70763 -117.08244 1977 ft 137 kts 284°
2026-04-26 04:30 32.71023 -117.09326 1773 ft 135 kts 284°
2026-04-26 04:30 32.71281 -117.10397 1552 ft 134 kts 284°
2026-04-26 04:31 32.71538 -117.11458 1341 ft 134 kts 284°
2026-04-26 04:31 32.71795 -117.12527 1118 ft 134 kts 284°
2026-04-26 04:31 32.72051 -117.13591 910 ft 135 kts 284°
2026-04-26 04:31 32.72311 -117.14666 717 ft 135 kts 284°
2026-04-26 04:32 32.72572 -117.15739 510 ft 134 kts 284°
2026-04-26 04:32 32.72832 -117.16802 253 ft 134 kts 284°
2026-04-26 04:32 32.73083 -117.17841 58 ft 132 kts 283°
2026-04-26 04:32 32.73304 -117.18770 27 ft 85 kts 287°
2026-04-26 04:33 32.73371 -117.19140 24 ft 28 kts 233°
2026-04-26 04:33 32.73319 -117.19187 22 ft 0 kts 248°
2026-04-26 04:34 32.73319 -117.19189 22 ft 3 kts 250°
2026-04-26 04:34 32.73326 -117.19272 22 ft 14 kts 286°
2026-04-26 04:34 32.73355 -117.19387 23 ft 15 kts 285°
2026-04-26 04:35 32.73385 -117.19513 23 ft 17 kts 286°
2026-04-26 04:35 32.73418 -117.19651 23 ft 18 kts 286°
2026-04-26 04:35 32.73455 -117.19800 24 ft 19 kts 286°
2026-04-26 04:35 32.73494 -117.19960 24 ft 21 kts 286°
2026-04-26 04:36 32.73535 -117.20127 25 ft 21 kts 287°
2026-04-26 04:36 32.73484 -117.20252 23 ft 20 kts 198°
2026-04-26 04:36 32.73370 -117.20267 23 ft 10 kts 172°
2026-04-26 04:36 32.73340 -117.20321 23 ft 8 kts 262°
2026-04-26 04:37 32.73338 -117.20347 23 ft 0 kts 265°